When you browse on this site, cookies collect data to enhance your experience and personalize the content and advertising you see.
Visit our Privacy Policy to learn more. By continuing to use the site, you agree to this use of cookies and data.
  • In United Kingdom
  • List of Countries
  • For 7 days
  • Water Temperature
  • Weather Map
  • Weather Widgets
  • user-avatar
    Login

    Hourly Weather Pechiivka

    Today, 4 June, Thursday

    Time Temperature Precipitation Wind Pressure Humidity
    00:00 +12°C° 0.6 mm 2 mps 737 mmHg 89%
    01:00 +12°C° 0.6 mm 2 mps 737 mmHg 92%
    02:00 +10°C° 0 mm 2 mps 737 mmHg 96%
    03:00 +10°C° 0.5 mm 2 mps 737 mmHg 96%
    04:00 +10°C° 0.5 mm 3 mps 738 mmHg 95%
    05:00 +10°C° 0.5 mm 3 mps 738 mmHg 94%
    06:00 +12°C° 0.1 mm 4 mps 738 mmHg 89%
    07:00 +13°C° 0.1 mm 4 mps 738 mmHg 85%
    08:00 +14°C° 0.1 mm 4 mps 739 mmHg 80%
    09:00 +15°C° 0.2 mm 4 mps 739 mmHg 76%
    10:00 +16°C° 0.2 mm 5 mps 739 mmHg 72%
    11:00 +17°C° 0.2 mm 5 mps 739 mmHg 68%
    12:00 +19°C° 0.2 mm 5 mps 739 mmHg 66%
    13:00 +19°C° 0.2 mm 5 mps 739 mmHg 65%
    14:00 +20°C° 0.2 mm 5 mps 739 mmHg 63%
    15:00 +19°C° 0.2 mm 4 mps 739 mmHg 65%
    16:00 +19°C° 0.2 mm 4 mps 739 mmHg 67%
    17:00 +19°C° 0.2 mm 4 mps 739 mmHg 70%
    18:00 +17°C° 0.2 mm 4 mps 740 mmHg 75%
    19:00 +15°C° 0.2 mm 4 mps 740 mmHg 79%
    20:00 +13°C° 0.2 mm 4 mps 740 mmHg 84%
    21:00 +13°C° 0 mm 4 mps 740 mmHg 86%
    22:00 +12°C° 0 mm 4 mps 740 mmHg 87%
    23:00 +12°C° 0 mm 4 mps 741 mmHg 88%

    Tomorrow, 5 June, Friday

    Time Temperature Precipitation Wind Pressure Humidity
    00:00 +11°C° 0 mm 4 mps 741 mmHg 89%
    01:00 +11°C° 0 mm 4 mps 741 mmHg 90%
    02:00 +10°C° 0 mm 4 mps 741 mmHg 91%
    03:00 +10°C° 0 mm 4 mps 741 mmHg 90%
    04:00 +10°C° 0 mm 5 mps 741 mmHg 88%
    05:00 +10°C° 0 mm 5 mps 741 mmHg 87%
    06:00 +11°C° 0 mm 6 mps 741 mmHg 85%
    07:00 +14°C° 0 mm 6 mps 741 mmHg 83%
    08:00 +15°C° 0 mm 7 mps 742 mmHg 80%
    09:00 +15°C° 0.9 mm 7 mps 741 mmHg 82%
    10:00 +15°C° 0.9 mm 7 mps 741 mmHg 84%
    11:00 +15°C° 0.9 mm 6 mps 741 mmHg 86%
    12:00 +15°C° 0.8 mm 6 mps 741 mmHg 88%
    13:00 +16°C° 0.8 mm 6 mps 741 mmHg 89%
    14:00 +16°C° 0.8 mm 5 mps 741 mmHg 91%
    15:00 +17°C° 1 mm 5 mps 741 mmHg 89%
    16:00 +17°C° 1 mm 5 mps 741 mmHg 87%
    17:00 +19°C° 1 mm 5 mps 741 mmHg 85%
    18:00 +19°C° 0.2 mm 5 mps 741 mmHg 85%
    19:00 +18°C° 0.2 mm 4 mps 742 mmHg 86%
    20:00 +18°C° 0.2 mm 4 mps 742 mmHg 86%
    21:00 +16°C° 0 mm 5 mps 742 mmHg 87%
    22:00 +16°C° 0 mm 5 mps 742 mmHg 87%
    23:00 +15°C° 0 mm 5 mps 743 mmHg 87%

    Day after tomorrow, 6 June, Saturday

    Time Temperature Precipitation Wind Pressure Humidity
    00:00 +14°C° 0 mm 5 mps 743 mmHg 89%
    01:00 +14°C° 0 mm 4 mps 743 mmHg 90%
    02:00 +13°C° 0 mm 4 mps 743 mmHg 91%
    03:00 +13°C° 0 mm 4 mps 744 mmHg 90%
    04:00 +13°C° 0 mm 4 mps 744 mmHg 90%
    05:00 +13°C° 0 mm 4 mps 744 mmHg 90%
    06:00 +15°C° 0 mm 5 mps 744 mmHg 84%
    07:00 +17°C° 0 mm 5 mps 745 mmHg 78%
    08:00 +20°C° 0 mm 6 mps 745 mmHg 73%
    09:00 +21°C° 0 mm 6 mps 745 mmHg 69%
    10:00 +22°C° 0 mm 6 mps 745 mmHg 65%
    11:00 +24°C° 0 mm 6 mps 746 mmHg 61%
    12:00 +24°C° 0 mm 6 mps 746 mmHg 60%
    13:00 +26°C° 0 mm 5 mps 746 mmHg 59%
    14:00 +26°C° 0 mm 5 mps 746 mmHg 57%
    15:00 +26°C° 0 mm 4 mps 745 mmHg 61%
    16:00 +26°C° 0 mm 4 mps 745 mmHg 65%
    17:00 +26°C° 0 mm 3 mps 745 mmHg 69%
    18:00 +24°C° 0 mm 3 mps 745 mmHg 73%
    19:00 +21°C° 0 mm 3 mps 745 mmHg 76%
    20:00 +19°C° 0 mm 3 mps 746 mmHg 80%
    21:00 +18°C° 0 mm 3 mps 746 mmHg 81%
    22:00 +17°C° 0 mm 3 mps 746 mmHg 82%
    23:00 +17°C° 0 mm 3 mps 746 mmHg 83%

    7 June, Sunday

    Time Temperature Precipitation Wind Pressure Humidity
    00:00 +16°C° 0 mm 3 mps 746 mmHg 83%
    01:00 +16°C° 0 mm 2 mps 746 mmHg 82%
    02:00 +15°C° 0 mm 2 mps 746 mmHg 82%
    03:00 +15°C° 0 mm 2 mps 746 mmHg 83%
    04:00 +16°C° 0 mm 2 mps 746 mmHg 84%
    05:00 +16°C° 0 mm 3 mps 746 mmHg 84%
    06:00 +18°C° 0 mm 3 mps 747 mmHg 82%
    07:00 +20°C° 0 mm 3 mps 747 mmHg 79%
    08:00 +22°C° 0 mm 4 mps 747 mmHg 77%
    09:00 +23°C° 0 mm 4 mps 747 mmHg 72%
    10:00 +25°C° 0 mm 5 mps 747 mmHg 68%
    11:00 +27°C° 0 mm 5 mps 747 mmHg 63%
    12:00 +27°C° 0 mm 5 mps 747 mmHg 62%
    13:00 +27°C° 0 mm 5 mps 746 mmHg 60%
    14:00 +28°C° 0 mm 5 mps 746 mmHg 59%
    15:00 +28°C° 0 mm 4 mps 746 mmHg 62%
    16:00 +27°C° 0 mm 4 mps 746 mmHg 66%
    17:00 +27°C° 0 mm 3 mps 745 mmHg 69%
    18:00 +25°C° 0 mm 3 mps 745 mmHg 73%
    19:00 +24°C° 0 mm 3 mps 745 mmHg 76%
    20:00 +21°C° 0 mm 4 mps 745 mmHg 79%
    21:00 +20°C° 0 mm 3 mps 745 mmHg 80%
    22:00 +19°C° 0 mm 3 mps 745 mmHg 81%
    23:00 +19°C° 0 mm 3 mps 745 mmHg 82%

    8 June, Monday

    Time Temperature Precipitation Wind Pressure Humidity
    00:00 +18°C° 0 mm 3 mps 745 mmHg 83%
    01:00 +18°C° 0 mm 3 mps 745 mmHg 85%
    02:00 +17°C° 0 mm 3 mps 745 mmHg 86%
    03:00 +17°C° 0 mm 4 mps 745 mmHg 86%
    04:00 +17°C° 0 mm 4 mps 745 mmHg 86%
    05:00 +18°C° 0 mm 4 mps 745 mmHg 86%
    06:00 +19°C° 0 mm 4 mps 745 mmHg 81%
    07:00 +21°C° 0 mm 5 mps 745 mmHg 77%
    08:00 +23°C° 0 mm 5 mps 745 mmHg 72%
    09:00 +25°C° 0 mm 5 mps 745 mmHg 68%
    10:00 +27°C° 0 mm 6 mps 745 mmHg 64%
    11:00 +28°C° 0 mm 6 mps 745 mmHg 59%
    12:00 +28°C° 0 mm 6 mps 745 mmHg 58%
    13:00 +29°C° 0 mm 6 mps 745 mmHg 57%
    14:00 +29°C° 0 mm 6 mps 744 mmHg 55%
    15:00 +29°C° 0 mm 5 mps 744 mmHg 60%
    16:00 +28°C° 0 mm 4 mps 744 mmHg 64%
    17:00 +28°C° 0 mm 4 mps 744 mmHg 68%
    18:00 +26°C° 0 mm 4 mps 744 mmHg 72%
    19:00 +23°C° 0 mm 4 mps 744 mmHg 75%
    20:00 +22°C° 0 mm 4 mps 744 mmHg 78%
    21:00 +21°C° 0 mm 4 mps 744 mmHg 80%
    22:00 +21°C° 0 mm 4 mps 744 mmHg 82%
    23:00 +20°C° 0 mm 3 mps 745 mmHg 83%

    9 June, Tuesday

    Time Temperature Precipitation Wind Pressure Humidity
    00:00 +19°C° 0 mm 3 mps 744 mmHg 85%
    01:00 +19°C° 0 mm 3 mps 744 mmHg 86%
    02:00 +19°C° 0 mm 3 mps 744 mmHg 88%
    03:00 +19°C° 0 mm 4 mps 744 mmHg 87%
    04:00 +19°C° 0 mm 4 mps 744 mmHg 86%
    05:00 +19°C° 0 mm 5 mps 745 mmHg 86%
    06:00 +21°C° 0 mm 5 mps 745 mmHg 81%
    07:00 +22°C° 0 mm 5 mps 745 mmHg 77%
    08:00 +25°C° 0 mm 5 mps 745 mmHg 73%
    09:00 +26°C° 0 mm 6 mps 745 mmHg 69%
    10:00 +27°C° 0 mm 6 mps 745 mmHg 65%
    11:00 +29°C° 0 mm 6 mps 745 mmHg 61%
    12:00 +29°C° 0 mm 6 mps 745 mmHg 58%
    13:00 +29°C° 0 mm 6 mps 745 mmHg 55%
    14:00 +30°C° 0 mm 6 mps 745 mmHg 52%
    15:00 +29°C° 0 mm 5 mps 745 mmHg 56%
    16:00 +28°C° 0 mm 4 mps 744 mmHg 59%
    17:00 +28°C° 0 mm 4 mps 744 mmHg 62%
    18:00 +26°C° 0 mm 4 mps 744 mmHg 64%
    19:00 +23°C° 0 mm 4 mps 745 mmHg 66%
    20:00 +21°C° 0 mm 3 mps 745 mmHg 68%
    21:00 +21°C° 0 mm 3 mps 745 mmHg 69%
    22:00 +20°C° 0 mm 3 mps 745 mmHg 70%
    23:00 +19°C° 0 mm 3 mps 745 mmHg 72%
    Show more